| time (UTC) | temp F | wind direction | speed MPH | gust MPH | rain 1hr in | rain 24hr in | rain mn in | humidity % | barometer mb |
| 20260507073019 | 56 | 32 | 0.0 | 2.0 | 0.00 | 0.00 | 0.00 | 82 | 1017.3 |
| 20260507071516 | 57 | 32 | 0.0 | 0.0 | 0.00 | 0.00 | 0.00 | 81 | 1017.4 |
| 20260507070014 | 57 | 32 | 0.0 | 0.0 | 0.00 | 0.00 | 0.00 | 81 | 1017.5 |
| 20260507064517 | 58 | 32 | 0.0 | 0.0 | 0.00 | 0.00 | 0.00 | 80 | 1017.7 |
| 20260507063017 | 58 | 32 | 0.0 | 0.0 | 0.00 | 0.00 | 0.00 | 80 | 1017.7 |
| 20260507061512 | 58 | 32 | 1.0 | 4.0 | 0.00 | 0.00 | 0.00 | 79 | 1017.7 |
| 20260507060018 | 59 | 144 | 0.0 | 0.0 | 0.00 | 0.00 | 0.00 | 77 | 1017.7 |
| 20260507054511 | 59 | 144 | 0.0 | 0.0 | 0.00 | 0.00 | 0.00 | 77 | 1017.5 |
| 20260507053011 | 60 | 144 | 0.0 | 2.0 | 0.00 | 0.00 | 0.00 | 75 | 1017.7 |
| 20260507051511 | 60 | 149 | 0.0 | 0.0 | 0.00 | 0.00 | 0.00 | 75 | 1017.7 |
| 20260507050010 | 61 | 149 | 0.0 | 0.0 | 0.00 | 0.00 | 0.00 | 74 | 1017.6 |
| 20260507044509 | 61 | 149 | 0.0 | 0.0 | 0.00 | 0.00 | 0.00 | 73 | 1017.7 |
| 20260507043009 | 62 | 178 | 0.0 | 0.0 | 0.00 | 0.00 | 0.00 | 73 | 1017.4 |
| 20260507041522 | 62 | 192 | 0.0 | 0.0 | 0.00 | 0.00 | 0.00 | 72 | 1017.3 |
| 20260507040007 | 63 | 197 | 0.0 | 2.0 | 0.00 | 0.00 | 0.00 | 72 | 1017.2 |
| 20260507034506 | 63 | 224 | 1.0 | 4.0 | 0.00 | 0.00 | 0.00 | 71 | 1017.0 |
| 20260507033006 | 64 | 226 | 0.0 | 4.0 | 0.00 | 0.00 | 0.00 | 69 | 1016.9 |
| 20260507031505 | 64 | 215 | 0.0 | 4.0 | 0.00 | 0.00 | 0.00 | 68 | 1016.7 |
| 20260507030005 | 65 | 224 | 2.0 | 5.0 | 0.00 | 0.00 | 0.00 | 66 | 1016.7 |
| 20260507024504 | 66 | 191 | 1.0 | 5.0 | 0.00 | 0.00 | 0.00 | 64 | 1016.5 |
| 20260507023004 | 66 | 202 | 1.0 | 7.0 | 0.00 | 0.00 | 0.00 | 63 | 1016.3 |
| 20260507021502 | 67 | 243 | 4.0 | 7.0 | 0.00 | 0.00 | 0.00 | 61 | 1016.3 |
| 20260507020002 | 68 | 237 | 1.0 | 8.0 | 0.00 | 0.00 | 0.00 | 59 | 1016.1 |
| 20260507014501 | 69 | 226 | 2.0 | 8.0 | 0.00 | 0.00 | 0.00 | 57 | 1016.1 |
| 20260507013100 | 70 | 213 | 1.0 | 10.0 | 0.00 | 0.00 | 0.00 | 57 | 1016.0 |
| 20260507011603 | 71 | 175 | 4.0 | 9.0 | 0.00 | 0.00 | 0.00 | 57 | 1015.9 |
| 20260507010059 | 72 | 222 | 3.0 | 8.0 | 0.00 | 0.00 | 0.00 | 55 | 1015.9 |
| 20260507004558 | 72 | 209 | 1.0 | 9.0 | 0.00 | 0.00 | 0.00 | 55 | 1015.7 |
| 20260507003058 | 73 | 190 | 2.0 | 11.0 | 0.00 | 0.00 | 0.00 | 56 | 1015.7 |
| 20260507001558 | 73 | 201 | 5.0 | 14.0 | 0.00 | 0.00 | 0.00 | 56 | 1015.7 |
| 20260507000055 | 74 | 230 | 5.0 | 13.0 | 0.00 | 0.00 | 0.00 | 55 | 1015.6 |
| 20260506234601 | 75 | 284 | 4.0 | 10.0 | 0.00 | 0.00 | 0.00 | 54 | 1015.4 |
| 20260506233057 | 75 | 217 | 5.0 | 10.0 | 0.00 | 0.00 | 0.00 | 53 | 1015.4 |
| 20260506231558 | 75 | 255 | 5.0 | 11.0 | 0.00 | 0.00 | 0.00 | 53 | 1015.5 |
| 20260506230056 | 75 | 263 | 4.0 | 10.0 | 0.00 | 0.00 | 0.00 | 53 | 1015.6 |
| 20260506224550 | 76 | 226 | 4.0 | 10.0 | 0.00 | 0.00 | 0.00 | 52 | 1015.5 |
| 20260506223055 | 75 | 255 | 4.0 | 11.0 | 0.00 | 0.00 | 0.00 | 52 | 1015.7 |
| 20260506221548 | 75 | 236 | 6.0 | 11.0 | 0.00 | 0.00 | 0.00 | 53 | 1015.7 |
| 20260506220046 | 76 | 215 | 6.0 | 15.0 | 0.00 | 0.00 | 0.00 | 51 | 1015.8 |
| 20260506214545 | 77 | 244 | 5.0 | 12.0 | 0.00 | 0.00 | 0.00 | 50 | 1015.9 |
| 20260506213102 | 77 | 206 | 4.0 | 11.0 | 0.00 | 0.00 | 0.00 | 49 | 1015.9 |
| 20260506211602 | 77 | 262 | 6.0 | 11.0 | 0.00 | 0.00 | 0.00 | 49 | 1016.0 |
| 20260506210043 | 78 | 162 | 4.0 | 12.0 | 0.00 | 0.00 | 0.00 | 49 | 1016.1 |
| 20260506204548 | 78 | 253 | 4.0 | 9.0 | 0.00 | 0.00 | 0.00 | 48 | 1016.0 |
| 20260506203046 | 78 | 300 | 3.0 | 10.0 | 0.00 | 0.00 | 0.00 | 47 | 1016.0 |
| 20260506201553 | 77 | 229 | 3.0 | 10.0 | 0.00 | 0.00 | 0.00 | 47 | 1016.2 |
| 20260506200036 | 76 | 351 | 2.0 | 11.0 | 0.00 | 0.00 | 0.00 | 46 | 1016.5 |
| 20260506194533 | 75 | 244 | 3.0 | 9.0 | 0.00 | 0.00 | 0.00 | 47 | 1016.7 |
| 20260506193036 | 76 | 179 | 3.0 | 7.0 | 0.00 | 0.00 | 0.00 | 46 | 1016.9 |
| 20260506191528 | 73 | 251 | 3.0 | 8.0 | 0.00 | 0.00 | 0.00 | 49 | 1017.1 |
| 20260506190025 | 75 | 241 | 3.0 | 9.0 | 0.00 | 0.00 | 0.00 | 48 | 1017.3 |
| 20260506184524 | 73 | 139 | 2.0 | 8.0 | 0.00 | 0.00 | 0.00 | 48 | 1017.5 |
| 20260506183029 | 71 | 338 | 1.0 | 8.0 | 0.00 | 0.00 | 0.00 | 51 | 1017.6 |
| 20260506181515 | 71 | 166 | 1.0 | 9.0 | 0.00 | 0.00 | 0.00 | 52 | 1017.8 |
| 20260506180013 | 69 | 123 | 2.0 | 6.0 | 0.00 | 0.00 | 0.00 | 57 | 1018.0 |
| 20260506174511 | 69 | 221 | 3.0 | 9.0 | 0.00 | 0.00 | 0.00 | 58 | 1018.1 |
| 20260506173005 | 68 | 303 | 2.0 | 5.0 | 0.00 | 0.00 | 0.00 | 60 | 1018.3 |
| 20260506171600 | 67 | 260 | 2.0 | 7.0 | 0.00 | 0.00 | 0.00 | 62 | 1018.4 |
| 20260506170113 | 65 | 326 | 2.0 | 6.0 | 0.00 | 0.00 | 0.00 | 62 | 1018.4 |
| 20260506164553 | 64 | 261 | 2.0 | 6.0 | 0.00 | 0.00 | 0.00 | 63 | 1018.4 |
| 20260506163101 | 64 | 237 | 2.0 | 6.0 | 0.00 | 0.00 | 0.00 | 62 | 1018.5 |
| 20260506161545 | 64 | 184 | 1.0 | 6.0 | 0.00 | 0.00 | 0.00 | 66 | 1018.5 |
| 20260506160042 | 62 | 1 | 1.0 | 6.0 | 0.00 | 0.00 | 0.00 | 68 | 1018.5 |
| 20260506154535 | 61 | 236 | 2.0 | 5.0 | 0.00 | 0.01 | 0.00 | 69 | 1018.5 |
| 20260506153031 | 60 | 101 | 0.0 | 4.0 | 0.00 | 0.01 | 0.00 | 71 | 1018.6 |
| 20260506151526 | 59 | 16 | 0.0 | 4.0 | 0.00 | 0.01 | 0.00 | 72 | 1018.7 |
| 20260506150022 | 58 | 330 | 0.0 | 2.0 | 0.00 | 0.01 | 0.00 | 76 | 1018.8 |
| 20260506144518 | 56 | 242 | 0.0 | 2.0 | 0.00 | 0.08 | 0.00 | 84 | 1018.7 |
| 20260506143025 | 54 | 126 | 1.0 | 4.0 | 0.00 | 0.08 | 0.00 | 87 | 1018.7 |
| 20260506141510 | 53 | 22 | 0.0 | 2.0 | 0.00 | 0.08 | 0.00 | 88 | 1018.6 |
| 20260506140005 | 51 | 41 | 4.0 | 6.0 | 0.00 | 0.12 | 0.00 | 89 | 1018.6 |
| 20260506134600 | 50 | 7 | 0.0 | 2.0 | 0.00 | 0.12 | 0.00 | 89 | 1018.7 |
| 20260506133058 | 50 | 7 | 0.0 | 0.0 | 0.00 | 0.12 | 0.00 | 89 | 1018.5 |
| 20260506131555 | 50 | 7 | 0.0 | 2.0 | 0.00 | 0.12 | 0.00 | 88 | 1018.4 |
| 20260506130059 | 50 | 4 | 0.0 | 0.0 | 0.00 | 0.12 | 0.00 | 88 | 1018.3 |
| 20260506124550 | 50 | 4 | 0.0 | 0.0 | 0.00 | 0.13 | 0.00 | 88 | 1018.2 |
| 20260506123050 | 50 | 4 | 0.0 | 0.0 | 0.00 | 0.13 | 0.00 | 88 | 1018.1 |
| 20260506121552 | 49 | 4 | 1.0 | 4.0 | 0.00 | 0.13 | 0.00 | 88 | 1017.8 |
| 20260506120048 | 49 | 20 | 1.0 | 3.0 | 0.00 | 0.13 | 0.00 | 88 | 1017.8 |
| 20260506114548 | 49 | 12 | 1.0 | 5.0 | 0.00 | 0.13 | 0.00 | 88 | 1017.8 |
| 20260506113045 | 49 | 30 | 0.0 | 0.0 | 0.00 | 0.13 | 0.00 | 87 | 1017.7 |
| 20260506111543 | 49 | 30 | 1.0 | 2.0 | 0.00 | 0.13 | 0.00 | 87 | 1017.7 |
| 20260506110042 | 49 | 30 | 0.0 | 0.0 | 0.00 | 0.13 | 0.00 | 86 | 1017.8 |
| 20260506104541 | 50 | 30 | 0.0 | 2.0 | 0.00 | 0.15 | 0.00 | 86 | 1017.8 |
| 20260506103047 | 50 | 30 | 0.0 | 2.0 | 0.00 | 0.15 | 0.00 | 86 | 1017.6 |
| 20260506101539 | 50 | 30 | 1.0 | 2.0 | 0.00 | 0.15 | 0.00 | 86 | 1017.6 |
| 20260506100037 | 50 | 30 | 0.0 | 4.0 | 0.00 | 0.15 | 0.00 | 86 | 1017.4 |
| 20260506094536 | 50 | 32 | 1.0 | 4.0 | 0.00 | 0.19 | 0.00 | 85 | 1017.4 |
| 20260506093034 | 51 | 13 | 0.0 | 2.0 | 0.00 | 0.19 | 0.00 | 85 | 1017.3 |
| 20260506091534 | 51 | 13 | 0.0 | 2.0 | 0.00 | 0.19 | 0.00 | 84 | 1017.4 |
| 20260506090042 | 51 | 22 | 0.0 | 0.0 | 0.00 | 0.19 | 0.00 | 84 | 1017.5 |
| 20260506084527 | 52 | 22 | 0.0 | 1.0 | 0.00 | 0.23 | 0.00 | 84 | 1017.7 |
| 20260506083026 | 52 | 9 | 1.0 | 4.0 | 0.00 | 0.23 | 0.00 | 84 | 1017.8 |
| 20260506081523 | 52 | 18 | 0.0 | 2.0 | 0.00 | 0.23 | 0.00 | 83 | 1017.9 |